Hourly Data Report for March 25, 2012

BAGOTVILLE A
QUEBEC

48°20'00.000" N
71°00'00.000" W
159.10 m
7060400
71727
YBG

Download Data

Hourly Data (March 2012)
Hourly Data Report for March 25, 2012
TIME
LST
Temp Definition
°C
Dew Point Definition
°C
Rel Hum Definition
%
Precip. Amount Definition
mm

Wind Dir Definition
10's deg

Wind Spd Definition
km/h
Visibility Definition
km
Stn Press Definition
kPa
Hmdx Definition


Wind Chill Definition


Weather Definition


00:00 -3.7 -6.6 80   19 9 24.1 99.75   -7 Mainly Clear
01:00 -3.3 -10.8 56     0 24.1 99.71     Mainly Clear
02:00 -2.3 -11.4 50   9 6 24.1 99.62   -5 Mostly Cloudy
03:00 -2.5 -8.5 63   9 9 24.1 99.56   -6 Mostly Cloudy
04:00 -1.9 -8.7 60   9 9 24.1 99.53   -5 Cloudy
05:00 -1.3 -8.6 58   7 11 24.1 99.49   -5 Cloudy
06:00 -1.0 -8.5 57   11 15 40.2 99.38   -6 Cloudy
07:00 -0.7 -9.2 53   10 7 40.2 99.32   -3 Cloudy
08:00 -0.5 -8.1 56   9 17 9.7 99.26   -5 Snow Showers
09:00 -1.0 -5.7 70   10 19 24.1 99.09   -6 Snow Showers
10:00 -1.5 -4.8 78   9 30 4.0 98.96   -8 Snow Showers
11:00 -2.0 -3.9 87   9 30 4.8 98.89   -9 Freezing Rain,Fog
12:00 -1.8 -3.1 91   9 26 4.8 98.76   -8 Freezing Rain,Ice Pellets,Fog
13:00 -1.6 -2.6 93   9 19 40.2 98.71   -7 Cloudy
14:00 -1.4 -2.6 92   9 24 40.2 98.63   -8 Cloudy
15:00 -1.0 -2.4 90   9 15 32.2 98.60   -6 Cloudy
16:00 -0.5 -2.4 87   11 9 32.2 98.53   -4 Cloudy
17:00 -0.2 -2.3 86   10 7 32.2 98.48   -3 Cloudy
18:00 -0.5 -1.8 91   10 13 32.2 98.44   -5 Cloudy
19:00 -0.5 -1.8 91   9 19 24.1 98.40   -6 Cloudy
20:00 -0.2 -1.2 93   26 4 9.7 98.43   -1 Freezing Rain
21:00 1.0 -1.5 83   30 22 16.1 98.46     Snow Showers
22:00 0.2 -4.1 73   30 32 16.1 98.50     Snow Showers
23:00 -1.0 -7.7 60   30 32 9.7 98.55   -8 Snow Showers

Notes on Data Quality.

Legend

  • E = Estimated
  • M = Missing
  • NA = Not Available*
  • [empty] = Indicates an unobserved value
Date modified: